This is the latest recevied weather packets stored in our database for station/object VE3MNX. If no packets are shown the sender has not sent any weather packets the latest 10 day(s).
| Time | Temp. | Humidity | Pressure | Rain* | Wind** | Luminosity | Snow |
|---|---|---|---|---|---|---|---|
| 1777722793 | 3.33° C | 82% | 1016.9 hPa | 0 mm | - | - | - |
| 1777721892 | 3.33° C | 83% | 1016.6 hPa | 0 mm | - | - | - |
| 1777720993 | 2.78° C | 83% | 1016.6 hPa | 0 mm | - | - | - |
| 1777720092 | 2.78° C | 83% | 1016.6 hPa | 0 mm | - | - | - |
| 1777719193 | 2.78° C | 84% | 1016.4 hPa | 0 mm | - | - | - |
| 1777718293 | 2.78° C | 83% | 1016.4 hPa | 0 mm | - | - | - |
| 1777717392 | 2.78° C | 83% | 1016.3 hPa | 0 mm | - | - | - |
| 1777716494 | 2.78° C | 86% | 1016.3 hPa | 0 mm | - | - | - |
| 1777715593 | 2.78° C | 85% | 1016.3 hPa | 0 mm | - | - | - |
| 1777714693 | 2.78° C | 85% | 1016.3 hPa | 0 mm | - | - | - |
| 1777713794 | 2.78° C | 84% | 1015.9 hPa | 0 mm | - | - | - |
| 1777712892 | 2.78° C | 83% | 1016.3 hPa | 0 mm | - | - | - |
| 1777711993 | 2.78° C | 84% | 1015.9 hPa | 0 mm | - | - | - |
| 1777711092 | 2.78° C | 83% | 1015.9 hPa | 0 mm | - | - | - |
| 1777710193 | 2.78° C | 83% | 1015.6 hPa | 0 mm | - | - | - |
| 1777709293 | 2.78° C | 83% | 1015.6 hPa | 0 mm | - | - | - |
| 1777708395 | 2.78° C | 82% | 1015.6 hPa | 0 mm | - | - | - |
| 1777707493 | 2.78° C | 79% | 1015.6 hPa | 0 mm | - | - | - |
| 1777706593 | 2.78° C | 78% | 1015.6 hPa | 0 mm | - | - | - |
| 1777705692 | 2.78° C | 76% | 1015.8 hPa | 0 mm | - | - | - |
| 1777704793 | 2.78° C | 76% | 1015.7 hPa | 0 mm | - | - | - |
| 1777703897 | 2.78° C | 77% | 1015.6 hPa | 0 mm | - | - | - |
| 1777702992 | 3.33° C | 77% | 1015.9 hPa | 0 mm | - | - | - |
| 1777702092 | 2.78° C | 76% | 1015.9 hPa | 0 mm | - | - | - |
| 1777701192 | 3.33° C | 77% | 1015.9 hPa | 0 mm | - | - | - |
* Rain latest hour (hover to see other rain measurements)
** Current wind speed in m/s (hover to see current wind gust speed)